Weather History for Wauseon Fulton County Airport, OH

Change the Weather History Date:

Friday, December 20, 2013

  Actual Average (KTOL) Record (KTOL)
Temperature  
Mean Temperature 44 °F 28 °F  
Max Temperature 51 °F 35 °F 62 °F (1895)
Min Temperature 37 °F 22 °F -7 °F (1963)
Degree Days  
Heating Degree Days 21 37  
Month to date heating degree days 675  
Since 1 July heating degree days 1908  
Cooling Degree Days 0 0  
Month to date cooling degree days 0  
Year to date cooling degree days 793  
Moisture  
Dew Point 43 °F    
Average Humidity 98    
Maximum Humidity 100    
Minimum Humidity 81    
Precipitation  
Precipitation 0.00 in 0.08 in 0.87 in (2012)
Month to date precipitation 1.75  
Year to date precipitation 33.31  
Snow  
Snow 0.00 in 0.30 in - ()
Month to date snowfall 4.3  
Since 1 July snowfall 6.4  
Snow Depth -    
Sea Level Pressure  
Sea Level Pressure 29.77 in    
Wind  
Wind Speed 8 mph (SSW)    
Max Wind Speed 14 mph    
Max Gust Speed 16 mph    
Visibility 2 miles    
Events Fog , Rain    
T = Trace of Precipitation, MM = Missing Value Source: NWS Daily Summary

Daily Weather History Graph

Daily Weather History Graph

Search for Another Location

Airport:

Trip Planner

Search our weather history database for the weather conditions in past years. The results will help you decide how hot, cold, wet, or windy it might be!

Date:

Astronomy

Dec. 20, 2013 Rise Set
Actual Time 7:59 AM EST 5:09 PM EST
Civil Twilight 7:27 AM EST 5:40 PM EST
Nautical Twilight 6:52 AM EST 6:15 PM EST
Astronomical Twilight 6:19 AM EST 6:49 PM EST
Moon 8:31 PM EST (12/20) 9:50 AM EST (12/20)
Length of Visible Light 10h 12m
Length of Day
9h 09m
Waning Gibbous, 90% of the Moon is Illuminated
Dec 20
Waning Gibbous
Dec 25
Last Quarter
Jan 1
New
Jan 7
First Quarter
Jan 15
Full

Hourly Weather History & Observations

Time (EST) Temp. Windchill Dew Point Humidity Pressure Visibility Wind Dir Wind Speed Gust Speed Precip Events Conditions
12:15 AM 37.4 °F - 33.8 °F 87% 29.88 in 10.0 mi Calm Calm - N/A   Overcast
12:35 AM 39.2 °F 37.0 °F 33.8 °F 81% 29.87 in 10.0 mi SW 3.5 mph - N/A   Overcast
12:55 AM 39.2 °F 35.9 °F 33.8 °F 81% 29.86 in 10.0 mi South 4.6 mph - N/A   Overcast
1:15 AM 39.2 °F 35.9 °F 33.8 °F 81% 29.86 in 10.0 mi South 4.6 mph - N/A   Overcast
1:35 AM 37.4 °F 32.1 °F 33.8 °F 87% 29.85 in 10.0 mi South 6.9 mph - N/A   Overcast
1:55 AM 39.2 °F 32.5 °F 33.8 °F 81% 29.84 in 10.0 mi South 10.4 mph - N/A   Overcast
2:15 AM 37.4 °F 30.8 °F 35.6 °F 93% 29.84 in 10.0 mi South 9.2 mph - N/A   Overcast
2:35 AM 39.2 °F 33.0 °F 35.6 °F 87% 29.84 in 9.0 mi South 9.2 mph - N/A   Overcast
2:55 AM 39.2 °F 33.6 °F 37.4 °F 93% 29.84 in 8.0 mi South 8.1 mph - N/A   Overcast
3:15 AM 39.2 °F 32.5 °F 37.4 °F 93% 29.84 in 3.0 mi South 10.4 mph - N/A   Overcast
3:35 AM 39.2 °F 33.0 °F 37.4 °F 93% 29.83 in 5.0 mi South 9.2 mph - N/A   Overcast
3:55 AM 39.2 °F - 39.2 °F 100% 29.82 in 6.0 mi North - - N/A   Overcast
4:15 AM 39.2 °F 32.5 °F 37.4 °F 93% 29.82 in 7.0 mi SSW 10.4 mph - N/A   Overcast
4:35 AM 39.2 °F 33.0 °F 37.4 °F 93% 29.81 in 7.0 mi SSW 9.2 mph - N/A   Overcast
4:55 AM 39.2 °F 31.6 °F 37.4 °F 93% 29.80 in 6.0 mi SSW 12.7 mph - N/A   Overcast
5:15 AM 39.2 °F 32.0 °F 39.2 °F 100% 29.80 in 3.0 mi SSW 11.5 mph - N/A Rain Light Rain
5:35 AM 39.2 °F 31.6 °F 39.2 °F 100% 29.79 in 2.5 mi SSW 12.7 mph - N/A   Overcast
5:55 AM 41.0 °F 33.9 °F 39.2 °F 93% 29.79 in 1.2 mi SSW 12.7 mph - N/A   Overcast
6:15 AM 41.0 °F 33.5 °F 39.2 °F 93% 29.79 in 1.5 mi SSW 13.8 mph - N/A   Overcast
6:35 AM 41.0 °F 34.3 °F 41.0 °F 100% 29.79 in 1.2 mi SSW 11.5 mph - N/A Rain Light Rain
6:55 AM 41.0 °F 33.9 °F 41.0 °F 100% 29.79 in 1.5 mi SSW 12.7 mph - N/A Rain Light Rain
7:15 AM 39.2 °F 32.0 °F 39.2 °F 100% 29.79 in 1.5 mi SSW 11.5 mph - N/A   Light Drizzle
7:35 AM 39.2 °F 33.0 °F 39.2 °F 100% 29.79 in 2.0 mi SW 9.2 mph 15.0 mph N/A Rain Light Rain
7:55 AM 39.2 °F 33.0 °F 39.2 °F 100% 29.79 in 2.0 mi SSW 9.2 mph - N/A   Overcast
8:15 AM 39.2 °F 33.0 °F 39.2 °F 100% 29.79 in 1.5 mi SSW 9.2 mph - N/A   Overcast
8:35 AM 39.2 °F 33.0 °F 39.2 °F 100% 29.79 in 1.2 mi SSW 9.2 mph - N/A Rain Light Rain
8:55 AM 39.2 °F 34.2 °F 39.2 °F 100% 29.79 in 1.2 mi SW 6.9 mph - N/A   Overcast
9:15 AM 39.2 °F 33.6 °F 39.2 °F 100% 29.79 in 1.2 mi SSW 8.1 mph - N/A Rain Light Rain
9:35 AM 41.0 °F 36.4 °F 41.0 °F 100% 29.80 in 1.5 mi SW 6.9 mph - N/A   Overcast
9:55 AM 41.0 °F 37.1 °F 41.0 °F 100% 29.80 in 0.5 mi SSW 5.8 mph - N/A   Overcast
10:15 AM 41.0 °F 36.4 °F 41.0 °F 100% 29.80 in 0.5 mi SSW 6.9 mph - N/A   Overcast
10:35 AM 41.0 °F 38.0 °F 41.0 °F 100% 29.81 in 0.5 mi SW 4.6 mph - N/A Fog Fog
10:55 AM 41.0 °F 36.4 °F 41.0 °F 100% 29.81 in 0.2 mi SSW 6.9 mph - N/A Fog Fog
11:15 AM 41.0 °F 36.4 °F 41.0 °F 100% 29.81 in 1.8 mi SW 6.9 mph - N/A   Overcast
11:35 AM 41.0 °F 39.0 °F 41.0 °F 100% 29.80 in 0.2 mi SW 3.5 mph - N/A   Light Drizzle
11:55 AM 41.0 °F 37.1 °F 41.0 °F 100% 29.79 in 0.2 mi SSW 5.8 mph - N/A Fog Fog
12:15 PM 42.8 °F 41.1 °F 42.8 °F 100% 29.78 in 0.2 mi SW 3.5 mph - N/A Fog Fog
12:35 PM 42.8 °F 40.1 °F 42.8 °F 100% 29.77 in 0.2 mi SW 4.6 mph - N/A Fog Fog
12:55 PM 42.8 °F 41.1 °F 42.8 °F 100% 29.76 in 0.2 mi WSW 3.5 mph - N/A Fog Fog
1:15 PM 42.8 °F 41.1 °F 42.8 °F 100% 29.76 in 0.2 mi SSW 3.5 mph - N/A Fog Fog
1:35 PM 41.0 °F 36.4 °F 41.0 °F 100% 29.74 in 0.2 mi SSW 6.9 mph - N/A   Overcast
1:55 PM 42.8 °F 38.0 °F 42.8 °F 100% 29.74 in 0.2 mi SSW 8.1 mph - N/A Fog Fog
2:15 PM 42.8 °F 37.5 °F 42.8 °F 100% 29.73 in 0.2 mi SSW 9.2 mph - N/A Fog Fog
2:35 PM 44.6 °F 40.2 °F 44.6 °F 100% 29.73 in 0.5 mi SSW 8.1 mph - N/A Rain Light Rain
2:55 PM 44.6 °F 40.2 °F 44.6 °F 100% 29.73 in 0.5 mi SSW 8.1 mph - N/A Rain Light Rain
3:15 PM 44.6 °F 39.7 °F 44.6 °F 100% 29.72 in 0.2 mi SSW 9.2 mph - N/A Rain Light Rain
3:35 PM 44.6 °F 39.7 °F 44.6 °F 100% 29.72 in 0.5 mi SSW 9.2 mph - N/A Fog Fog
3:55 PM 44.6 °F 39.7 °F 44.6 °F 100% 29.73 in 0.2 mi SSW 9.2 mph - N/A Fog Fog
4:15 PM 44.6 °F 39.7 °F 44.6 °F 100% 29.73 in 0.2 mi SSW 9.2 mph - N/A Fog Fog
4:35 PM 46.4 °F 41.5 °F 46.4 °F 100% 29.73 in 0.2 mi SSW 10.4 mph - N/A Fog Fog
4:55 PM 46.4 °F 40.7 °F 46.4 °F 100% 29.73 in 0.2 mi SSW 12.7 mph - N/A Fog Fog
5:15 PM 46.4 °F 41.1 °F 46.4 °F 100% 29.73 in 0.2 mi SSW 11.5 mph - N/A Fog Fog
5:35 PM 48.2 °F - 48.2 °F 100% 29.72 in 0.2 mi SSW 11.5 mph - N/A Fog Fog
5:55 PM 48.2 °F - 48.2 °F 100% 29.73 in 0.2 mi SSW 13.8 mph - N/A Fog Fog
6:15 PM 50.0 °F - 50.0 °F 100% 29.72 in 0.5 mi SSW 13.8 mph - N/A   Overcast
6:35 PM 50.0 °F - 50.0 °F 100% 29.73 in 0.5 mi SSW 12.7 mph - N/A Fog Fog
6:55 PM 50.0 °F - 50.0 °F 100% 29.74 in 1.8 mi SSW 11.5 mph - N/A   Overcast
7:15 PM 51.8 °F - 51.8 °F 100% 29.73 in 2.0 mi SW 12.7 mph - N/A Rain Light Rain
7:35 PM 51.8 °F - 51.8 °F 100% 29.74 in 2.0 mi SSW 11.5 mph - N/A Rain Light Rain
7:55 PM 51.8 °F - 51.8 °F 100% 29.74 in 2.5 mi SSW 12.7 mph - N/A   Overcast
8:15 PM 50.0 °F - 50.0 °F 100% 29.75 in 1.8 mi SSW 8.1 mph - N/A   Overcast
8:35 PM 50.0 °F - 50.0 °F 100% 29.73 in 0.8 mi South 10.4 mph - N/A   Overcast
8:55 PM 51.8 °F - 51.8 °F 100% 29.74 in 2.5 mi SSW 6.9 mph - N/A Rain Light Rain
9:15 PM 50.0 °F - 50.0 °F 100% 29.72 in 0.2 mi South 8.1 mph - N/A Fog Fog
9:35 PM 50.0 °F - 50.0 °F 100% 29.73 in 0.2 mi SSW 9.2 mph - N/A Fog Fog
9:55 PM 51.8 °F - 51.8 °F 100% 29.73 in 3.0 mi SW 8.1 mph - N/A   Overcast
10:15 PM 50.0 °F - 50.0 °F 100% 29.72 in 2.5 mi SSW 9.2 mph - N/A   Overcast
10:35 PM 50.0 °F - 50.0 °F 100% 29.72 in 1.5 mi South 10.4 mph - N/A   Overcast
10:55 PM 50.0 °F - 50.0 °F 100% 29.73 in 1.2 mi SSW 11.5 mph - N/A   Overcast
11:15 PM 51.8 °F - 51.8 °F 100% 29.72 in 2.0 mi SSW 11.5 mph - N/A   Overcast
11:35 PM 51.8 °F - 51.8 °F 100% 29.72 in 2.0 mi SSW 10.4 mph - N/A   Overcast
11:55 PM 51.8 °F - 51.8 °F 100% 29.71 in 3.0 mi SSW 10.4 mph 16.1 mph N/A   Overcast